CARTOSAT-2B

Last updated on Sat Jul 18 2026 00:02:48 GMT+0000 (Coordinated Universal Time)

1 36795U 10035A 26198.72391137 .00000600 00000+0 88945-4 0 9991 2 36795 97.9933 249.0755 0012751 92.4728 267.7943 14.78653913864364
UTC large
Height (km)
Speed (km/s)
/
Latitude / Longitude
Inclination (degrees)
Orbital Period (minutes)
Azimuth
Elevation
Range (km)
Doppler Factor

Next 0 passes for location: London (51.5072 / 0.1276)

No passes found over London.
CARTOSAT-2B